Temp
64 64 63 63 63 63 63 63 63 63 63 63 63 63 63 63 63 86 96 91 93 80 77 106 105 106 107 104 106 106 90 86 88 82 77 94 93 100 101 97 98 99 98 99 100
63 63 63 63 63 63 62 62 63 63 63 63 63 63 63 63 86 100 81 81 79 78 100 102 101 104 102 102 104 99 89 90 97 98 93 97 95 96 83 88 80 95 100 100 99
62 63 62 62 63 62 62 62 62 62 63 62 62 62 62 68 91 99 77 78 77 81 103 109 108 104 100 103 101 99 92 96 97 99 100 97 94 99 93 79 95 86 95 97 97
62 62 62 62 62 62 62 62 62 63 62 62 62 62 63 86 84 100 78 79 77 97 104 104 103 99 98 95 101 94 98 97 98 99 98 90 99 94 95 95 100 100 99 98 96
61 62 62 61 61 61 61 61 62 61 61 61 62 62 81 92 97 99 78 81 100 100 102 103 101 101 96 98 98 96 96 98 99 100 99 99 95 94 93 99 102 100 99 97 96
61 61 61 61 61 61 61 60 60 60 61 61 62 61 86 86 107 106 104 103 106 104 105 106 103 104 99 97 97 98 97 97 99 99 98 81 91 94 94 99 97 97 96 94 91
60 60 60 60 60 60 60 60 59 60 61 63 64 79 88 93 107 108 106 106 108 107 103 108 107 102 102 97 102 99 82 87 97 97 95 93 81 86 94 97 93 92 90 90 90
60 59 59 60 60 60 60 60 60 61 62 63 65 84 90 106 110 105 108 105 108 109 107 109 108 103 102 103 99 89 84 81 94 96 88 75 59 88 96 93 90 89 86 87 88
59 59 59 59 60 60 60 59 61 62 63 66 81 87 89 91 101 108 109 104 105 106 107 106 104 100 102 92 82 82 81 83 80 97 91 82 81 90 95 93 88 88 88 86 86
59 59 58 59 59 59 59 59 62 64 70 87 91 85 95 96 103 106 110 108 102 102 100 98 99 95 95 84 70 76 81 83 83 91 91 86 83 89 93 91 88 89 88 88 86
59 59 58 59 59 59 66 82 86 82 87 92 94 91 97 102 106 103 107 102 103 99 92 98 92 83 91 93 93 90 85 83 86 90 87 83 83 86 90 92 89 89 86 85 84
59 59 59 59 59 59 73 90 90 91 86 97 97 97 99 102 96 102 109 97 95 91 97 93 86 93 95 93 91 88 80 75 86 89 88 84 81 86 88 88 89 88 87 87 86
58 58 59 59 60 69 91 93 100 98 86 91 96 97 99 101 97 98 104 101 95 92 93 86 90 95 92 90 80 82 84 83 82 85 89 76 63 75 86 88 88 88 88 88 86
57 57 58 59 66 98 92 98 101 98 81 83 88 96 99 100 93 107 107 102 97 92 92 92 96 91 91 87 90 77 89 87 83 81 63 84 63 57 77 81 84 86 87 87 87
57 57 58 52 86 91 95 102 100 94 65 89 91 106 103 94 98 96 106 100 92 91 92 87 90 90 86 87 91 83 91 87 84 82 71 57 57 64 61 77 80 83 85 86 86
56 57 58 73 88 98 100 100 92 75 65 83 92 89 91 95 96 99 98 104 101 93 95 92 98 94 91 91 91 91 87 85 73 80 52 64 70 66 53 77 80 83 84 85 87
57 57 61 87 93 103 101 92 76 71 86 81 85 90 89 88 90 92 90 89 86 80 81 88 89 93 93 88 90 90 81 67 56 64 57 79 76 74 80 83 84 82 84 86 88
58 57 68 90 100 98 94 82 66 80 81 88 89 89 84 87 89 89 87 85 92 90 84 79 74 87 91 88 84 85 81 72 60 64 71 74 61 71 83 85 86 85 85 86 86
54 81 90 96 97 95 86 73 75 80 85 83 86 82 81 86 88 88 86 86 90 92 81 81 77 90 90 91 89 83 78 85 73 76 70 70 74 80 82 82 83 83 83 82 83
85 91 94 95 95 89 81 69 81 84 84 84 77 84 76 83 82 84 84 90 88 92 94 86 75 87 88 92 90 85 88 74 77 62 61 66 67 57 75 78 81 80 81 81 83
82 85 90 97 93 84 75 81 84 88 85 81 82 81 82 82 85 84 84 89 91 90 93 89 81 80 86 82 81 84 80 81 78 75 65 64 68 82 80 82 79 82 82 82 84
86 79 93 96 79 83 81 85 64 86 88 84 85 84 84 84 81 84 83 87 93 93 85 89 82 76 77 87 89 85 81 79 70 67 75 72 64 85 85 84 83 82 82 84 84
82 87 93 91 75 80 85 84 85 84 85 83 82 87 88 83 77 85 86 86 88 90 86 88 80 71 72 79 84 81 82 82 78 76 64 67 63 84 84 82 83 82 82 82 82
84 77 83 85 86 79 80 80 81 88 84 86 85 86 84 82 86 82 84 85 88 89 70 81 81 76 71 75 82 76 78 81 77 70 71 70 73 77 79 79 80 81 82 84 84
85 81 84 76 80 82 84 84 81 80 86 86 83 84 81 76 82 82 87 84 86 71 84 86 76 81 81 82 82 80 79 80 77 77 70 74 75 79 81 79 81 81 82 83 82
79 80 85 83 84 81 71 80 81 83 83 81 79 86 86 79 83 81 85 84 83 85 85 85 78 81 77 81 81 77 79 79 78 77 77 77 69 83 85 86 81 81 81 81 81
86 86 81 73 79 80 81 82 82 83 84 85 83 86 85 87 91 94 94 92 90 84 82 82 80 76 71 78 78 72 79 78 78 80 77 72 77 82 80 80 80 81 82 80 80
MSLP
1019.82 1019.59 1019.41 1019.12 1018.97 1018.82 1018.51 1018.26 1017.78 1017.37 1016.95 1016.55 1016.14 1015.60 1014.95 1014.54 1013.24 1012.21 1010.09 1010.11 1009.87 1010.15 1010.25 1008.55 1008.25 1007.34 1006.68 1005.15 1004.11 1003.80 1002.93 1001.68 1002.06 1003.90 1005.43 1004.44 1003.83 1004.07 1004.88 1005.26 1006.01 1006.25 1006.29 1007.97 1009.77
1019.69 1019.56 1019.32 1019.03 1018.85 1018.74 1018.46 1018.18 1017.75 1017.30 1016.89 1016.47 1015.97 1015.40 1014.86 1014.54 1012.48 1009.66 1010.32 1009.86 1010.26 1010.43 1009.60 1007.97 1007.03 1006.44 1005.23 1004.14 1003.42 1002.91 1002.15 1002.06 1002.71 1002.67 1003.13 1003.13 1003.58 1003.65 1007.93 1006.60 1008.53 1007.60 1007.71 1008.45 1009.78
1019.64 1019.42 1019.17 1018.92 1018.75 1018.58 1018.36 1018.08 1017.69 1017.23 1016.81 1016.45 1015.86 1015.21 1014.69 1014.41 1011.49 1008.87 1010.04 1009.87 1010.17 1010.38 1008.99 1007.14 1006.36 1005.70 1004.22 1003.59 1003.02 1002.62 1002.14 1002.66 1003.05 1003.67 1002.91 1002.79 1002.97 1003.25 1004.85 1007.47 1006.19 1007.38 1007.92 1008.77 1009.97
1019.50 1019.25 1019.11 1018.77 1018.60 1018.31 1018.20 1017.93 1017.60 1017.16 1016.73 1016.38 1015.81 1015.05 1014.25 1013.17 1009.27 1009.10 1009.88 1009.88 1010.15 1009.82 1008.53 1007.06 1006.28 1004.94 1003.39 1002.79 1003.22 1002.80 1002.90 1003.23 1003.26 1003.53 1003.04 1004.45 1003.24 1004.05 1004.71 1005.41 1005.88 1006.55 1007.88 1009.02 1010.11
1019.34 1019.16 1018.86 1018.58 1018.38 1018.21 1018.00 1017.75 1017.48 1017.06 1016.73 1016.32 1015.79 1015.11 1013.49 1010.74 1008.08 1009.17 1009.68 1009.83 1009.34 1009.33 1007.83 1006.41 1005.37 1004.19 1003.10 1003.10 1003.28 1002.76 1003.00 1003.35 1003.50 1003.49 1003.38 1003.71 1004.09 1004.47 1005.95 1006.23 1006.57 1007.54 1008.48 1009.34 1010.46
1019.05 1018.89 1018.68 1018.49 1018.19 1018.00 1017.78 1017.56 1017.28 1016.92 1016.67 1016.28 1015.78 1015.19 1013.34 1009.64 1007.92 1008.36 1008.51 1008.73 1008.17 1008.10 1006.97 1006.04 1004.85 1004.75 1003.76 1003.40 1003.11 1003.23 1003.24 1003.42 1003.26 1003.33 1004.31 1007.60 1006.54 1005.82 1006.80 1007.09 1007.79 1008.51 1009.48 1010.98 1012.33
1018.91 1018.60 1018.33 1018.20 1017.96 1017.79 1017.52 1017.25 1016.98 1016.74 1016.51 1016.18 1015.79 1014.81 1011.72 1008.77 1008.10 1008.18 1008.36 1007.92 1007.73 1007.27 1006.44 1005.93 1005.64 1005.05 1004.06 1003.28 1003.51 1003.65 1005.49 1004.45 1003.55 1003.71 1004.30 1006.11 1007.42 1007.86 1007.86 1008.10 1008.92 1009.79 1011.24 1012.43 1013.56
1018.64 1018.41 1018.18 1017.91 1017.75 1017.50 1017.14 1016.88 1016.66 1016.46 1016.25 1015.91 1015.66 1014.15 1009.87 1008.24 1008.04 1008.05 1007.88 1007.69 1007.69 1007.30 1006.85 1006.32 1005.96 1005.30 1004.28 1003.63 1003.77 1004.52 1006.82 1004.91 1004.03 1004.18 1006.00 1008.42 1010.30 1008.64 1008.48 1008.68 1009.59 1010.78 1012.03 1012.45 1014.02
1018.36 1018.23 1018.01 1017.72 1017.48 1017.13 1016.89 1016.65 1016.25 1016.11 1015.97 1015.57 1014.60 1012.59 1008.57 1008.73 1007.89 1007.27 1007.35 1006.91 1007.25 1007.17 1006.84 1006.63 1006.12 1004.79 1003.75 1003.93 1005.26 1005.67 1003.51 1003.88 1006.30 1004.90 1006.39 1007.64 1008.39 1008.65 1008.76 1009.03 1010.16 1011.23 1012.07 1013.41 1014.36
1018.26 1017.88 1017.80 1017.48 1017.20 1016.92 1016.67 1016.40 1016.16 1015.79 1015.21 1014.05 1012.87 1011.51 1008.60 1007.08 1007.08 1007.03 1007.08 1006.75 1006.75 1006.55 1006.43 1006.15 1005.32 1003.79 1003.23 1004.52 1004.96 1004.28 1003.84 1004.54 1004.69 1005.37 1006.17 1007.58 1008.44 1008.68 1008.87 1009.39 1010.41 1011.04 1012.18 1012.99 1014.32
1018.05 1017.82 1017.51 1017.17 1017.02 1016.87 1016.26 1015.46 1015.05 1014.01 1012.49 1010.02 1009.03 1008.56 1007.31 1007.16 1007.14 1006.81 1006.75 1006.93 1006.52 1006.18 1004.93 1004.66 1004.01 1004.03 1003.06 1003.40 1003.59 1003.75 1004.03 1004.40 1005.64 1006.47 1006.61 1008.11 1008.73 1009.16 1009.20 1009.16 1010.10 1011.24 1012.67 1013.74 1014.89
1018.02 1017.60 1017.40 1017.11 1016.85 1016.75 1016.00 1013.00 1011.94 1011.74 1009.89 1008.84 1008.46 1007.88 1007.42 1007.14 1006.33 1005.97 1006.32 1006.19 1005.89 1004.82 1003.98 1003.95 1003.37 1003.69 1003.85 1004.15 1003.99 1004.14 1004.83 1006.16 1005.89 1006.49 1006.90 1008.46 1009.37 1009.87 1010.14 1010.20 1010.60 1011.52 1012.43 1013.30 1014.15
1017.87 1017.54 1017.28 1016.97 1016.66 1016.20 1013.60 1011.96 1011.51 1011.15 1009.61 1007.91 1007.49 1006.68 1006.63 1006.76 1005.59 1005.48 1005.84 1005.25 1004.83 1004.00 1003.78 1003.99 1004.15 1004.39 1004.45 1004.18 1005.39 1005.89 1004.98 1005.28 1005.68 1006.91 1007.23 1009.47 1011.40 1010.48 1010.57 1011.14 1011.71 1012.34 1013.00 1013.75 1014.52
1017.57 1017.19 1016.95 1016.87 1016.99 1013.16 1012.06 1011.69 1011.48 1011.22 1008.64 1007.27 1006.93 1006.20 1006.36 1006.11 1005.20 1005.03 1005.25 1004.62 1003.86 1003.57 1003.98 1003.35 1004.23 1004.47 1004.26 1004.42 1004.97 1005.74 1005.87 1005.82 1006.32 1006.92 1009.02 1008.71 1011.54 1012.94 1010.82 1011.41 1012.05 1012.34 1012.95 1013.78 1014.59
1017.34 1017.05 1016.94 1017.19 1014.99 1012.55 1011.78 1011.46 1011.35 1011.23 1007.34 1006.20 1005.76 1005.52 1005.57 1005.71 1005.00 1005.67 1005.67 1005.00 1003.98 1004.04 1004.56 1003.83 1004.26 1004.26 1004.45 1005.33 1005.61 1005.82 1006.14 1006.18 1006.90 1007.27 1009.47 1011.68 1013.64 1013.51 1013.83 1011.36 1012.50 1012.97 1013.62 1014.13 1014.95
1016.97 1016.86 1016.92 1016.22 1014.45 1012.02 1011.84 1011.58 1011.66 1009.80 1006.06 1005.50 1005.34 1005.54 1005.34 1005.26 1004.79 1005.09 1005.44 1005.17 1004.55 1004.34 1004.37 1004.26 1004.76 1005.00 1005.37 1005.88 1006.15 1006.34 1006.15 1006.85 1008.22 1008.11 1010.59 1010.98 1011.20 1012.32 1013.55 1011.90 1012.27 1013.20 1013.96 1014.38 1014.80
1016.79 1016.71 1016.83 1014.54 1012.00 1011.88 1011.81 1011.16 1009.73 1006.92 1006.21 1005.37 1005.00 1005.14 1004.98 1005.06 1004.98 1005.14 1005.18 1005.12 1004.92 1004.48 1004.24 1004.96 1005.01 1005.99 1006.11 1005.67 1007.00 1006.11 1006.37 1006.91 1009.67 1009.07 1009.19 1008.57 1008.95 1010.44 1011.34 1011.56 1012.18 1013.12 1013.94 1014.48 1014.77
1016.77 1016.67 1015.20 1013.96 1012.51 1012.38 1011.74 1010.44 1007.98 1005.91 1005.56 1005.33 1004.96 1005.01 1004.74 1005.04 1004.92 1005.22 1005.06 1004.81 1004.76 1004.30 1004.13 1004.28 1005.26 1005.75 1006.40 1006.53 1006.60 1006.28 1006.76 1006.82 1007.23 1007.30 1007.16 1008.82 1010.41 1010.47 1011.10 1011.90 1012.71 1013.62 1014.26 1014.63 1015.19
1016.86 1015.45 1013.63 1012.59 1012.91 1012.78 1011.33 1008.89 1006.86 1006.10 1005.93 1005.87 1005.44 1005.04 1004.95 1005.12 1005.00 1005.08 1005.06 1004.54 1004.76 1004.46 1004.31 1004.33 1005.57 1006.67 1006.90 1007.02 1007.22 1006.58 1006.66 1007.59 1007.90 1007.18 1007.04 1008.51 1009.53 1010.98 1011.75 1012.16 1012.68 1013.58 1014.41 1015.09 1015.84
1015.38 1013.26 1011.72 1012.56 1012.83 1012.47 1010.68 1007.97 1007.00 1007.31 1007.26 1006.58 1005.57 1005.15 1004.86 1004.99 1005.01 1005.01 1004.99 1004.76 1004.92 1005.35 1005.14 1005.14 1005.88 1006.43 1007.23 1007.34 1007.56 1007.40 1007.71 1007.45 1007.39 1007.07 1007.12 1007.96 1009.14 1011.05 1011.42 1012.02 1012.84 1013.69 1014.48 1015.42 1016.13
1015.24 1012.18 1012.24 1012.20 1012.74 1011.55 1009.16 1007.29 1007.16 1007.43 1007.59 1007.06 1005.81 1005.33 1004.98 1004.73 1004.93 1004.86 1004.97 1005.42 1005.87 1006.04 1006.03 1006.06 1006.72 1006.92 1007.14 1007.26 1007.26 1007.15 1007.12 1007.76 1008.40 1008.30 1008.27 1007.79 1008.92 1009.80 1010.33 1011.33 1012.61 1013.43 1014.44 1015.25 1015.84
1014.02 1011.44 1011.92 1012.07 1011.56 1009.97 1008.33 1007.26 1008.52 1007.32 1007.41 1007.24 1006.77 1005.79 1005.29 1005.20 1005.08 1004.95 1005.00 1005.64 1006.60 1006.60 1006.69 1006.81 1007.06 1006.71 1007.42 1007.72 1008.07 1008.13 1008.21 1008.54 1008.66 1008.63 1008.30 1008.82 1010.03 1010.43 1010.71 1011.72 1012.80 1013.69 1014.67 1015.26 1016.17
1012.89 1010.94 1011.97 1011.63 1009.83 1008.61 1008.08 1007.41 1007.93 1007.49 1006.98 1007.14 1006.92 1006.22 1005.82 1005.67 1005.48 1005.16 1005.55 1007.18 1007.66 1007.31 1007.32 1007.66 1007.41 1007.25 1007.69 1008.61 1008.55 1008.16 1008.63 1009.21 1009.51 1009.62 1010.06 1009.00 1010.51 1010.79 1011.51 1012.40 1013.22 1013.87 1014.92 1015.63 1016.29
1012.92 1010.72 1011.18 1011.19 1009.59 1008.74 1007.84 1007.65 1007.37 1007.41 1007.51 1007.34 1006.72 1006.96 1006.45 1005.96 1005.91 1005.78 1006.09 1007.57 1008.12 1008.12 1008.89 1008.36 1007.86 1007.66 1007.30 1007.55 1007.98 1008.25 1008.84 1009.13 1009.63 1009.49 1009.32 1009.73 1009.88 1010.90 1011.87 1012.63 1013.57 1014.22 1015.06 1015.19 1016.01
1012.79 1010.17 1009.57 1009.63 1009.26 1008.33 1007.53 1007.35 1007.06 1006.96 1007.35 1007.37 1006.99 1006.73 1006.60 1006.25 1005.91 1005.78 1006.02 1007.64 1008.33 1008.94 1008.87 1008.47 1008.13 1008.04 1008.06 1008.39 1008.39 1008.23 1008.52 1008.87 1009.24 1009.57 1009.90 1009.84 1010.01 1010.53 1011.31 1012.37 1013.44 1014.61 1015.05 1015.48 1016.02
1012.94 1010.97 1010.34 1009.11 1008.92 1008.60 1008.42 1007.54 1006.98 1006.79 1007.26 1007.15 1007.01 1006.41 1006.45 1006.33 1005.80 1005.69 1005.94 1006.78 1007.33 1008.55 1008.48 1008.72 1008.25 1008.28 1008.34 1008.67 1008.70 1008.50 1008.81 1009.44 1009.70 1010.04 1010.15 1010.29 1011.10 1011.53 1011.87 1012.35 1013.83 1014.74 1015.17 1015.51 1016.31
1013.62 1012.48 1011.75 1009.60 1009.35 1008.52 1007.66 1007.54 1007.30 1007.71 1007.85 1007.62 1007.12 1006.47 1006.25 1006.03 1005.96 1005.31 1005.79 1006.40 1006.83 1007.73 1008.10 1008.35 1008.20 1008.72 1007.98 1008.59 1008.71 1008.64 1008.32 1009.20 1009.90 1010.50 1010.92 1010.65 1011.40 1011.99 1012.51 1013.27 1014.25 1014.59 1015.13 1015.90 1016.81
Wind_Speed
10 10 11 10 9 10 10 12 12 12 12 14 16 16 17 16 22 9 5 5 3 2 3 9 13 14 12 16 8 9 4 4 16 19 17 28 8 12 3 14 12 12 15 19 16
11 11 11 11 10 10 10 12 12 12 14 14 16 17 16 15 14 13 2 5 4 4 10 11 12 11 13 7 5 11 4 17 10 11 17 5 10 7 8 31 19 12 16 19 15
11 12 11 11 11 10 11 12 12 12 14 14 17 18 17 15 13 11 3 0 3 4 14 11 11 7 16 4 1 4 10 5 9 10 8 7 12 7 19 15 13 24 16 16 13
12 13 13 11 12 10 11 11 11 13 14 15 17 18 20 10 3 9 7 3 5 8 12 11 11 14 11 3 2 11 8 4 7 4 3 5 8 13 16 13 10 17 14 14 12
11 12 12 12 11 11 11 11 11 12 14 15 16 17 14 10 3 10 9 8 10 11 13 11 12 12 10 2 3 10 3 1 4 6 6 1 14 14 13 9 11 15 11 12 15
12 11 11 12 11 11 12 11 11 11 13 14 14 19 9 12 6 6 4 8 10 12 11 10 7 10 10 3 9 4 1 5 4 8 7 26 21 16 10 12 12 13 16 17 14
11 12 11 11 11 11 11 11 11 12 12 14 13 8 10 6 3 5 6 10 8 10 8 6 8 11 3 8 4 4 29 24 8 4 12 24 22 13 12 16 17 19 17 13 12
11 11 11 11 11 10 11 11 11 12 13 13 9 9 7 3 5 5 8 8 7 7 8 8 8 11 14 3 11 7 11 12 10 7 35 29 20 9 13 17 17 16 12 13 12
11 11 11 11 11 10 11 12 13 14 11 9 9 8 2 4 8 7 11 11 9 8 8 8 10 16 10 5 14 23 2 21 12 14 13 21 15 12 11 14 15 12 13 12 10
11 12 10 10 10 10 13 8 8 10 10 9 9 8 7 6 5 5 9 3 9 8 9 10 11 12 15 12 12 16 13 3 13 10 12 15 14 10 13 17 13 13 12 13 12
11 10 10 8 9 9 13 6 8 8 10 8 12 7 6 1 5 10 10 9 9 11 17 16 6 14 13 12 12 5 4 9 6 3 7 11 11 11 9 14 15 15 16 14 15
11 10 9 8 8 9 8 8 6 7 8 11 8 6 3 3 10 12 12 12 12 18 11 9 6 7 7 5 4 4 24 22 5 5 6 12 11 11 12 13 15 14 14 12 12
10 9 8 7 7 6 11 6 6 5 9 9 5 8 10 9 13 14 14 15 16 16 15 3 4 4 5 8 19 21 12 4 3 6 7 22 10 7 16 16 15 14 11 11 11
9 8 8 5 3 1 7 1 7 4 7 12 10 9 8 10 6 12 10 9 10 13 5 3 9 4 11 2 12 10 9 6 3 11 6 15 5 7 3 15 11 12 11 13 11
9 7 7 8 11 7 6 6 6 4 7 16 12 8 13 15 14 10 4 10 14 5 8 6 10 12 7 10 10 10 10 8 5 14 11 16 2 3 11 17 11 11 10 11 12
9 6 5 7 7 8 6 6 4 9 4 9 10 12 14 18 10 16 10 12 8 2 17 6 8 9 11 3 4 7 5 4 21 10 9 22 16 9 8 7 10 12 9 8 9
6 4 7 9 3 1 4 6 8 10 5 11 15 16 17 15 13 10 13 13 10 11 8 9 10 6 4 6 14 14 9 2 5 5 4 7 4 11 8 8 11 10 8 7 5
3 4 10 10 6 6 7 8 9 2 9 3 12 12 13 15 12 14 14 13 17 17 11 12 9 6 2 7 12 15 8 9 14 11 10 17 6 8 13 12 11 9 7 6 9
1 6 7 6 8 5 9 10 4 6 5 7 9 13 10 11 11 14 13 13 12 11 9 6 12 7 6 4 6 11 7 11 10 18 11 5 12 13 10 11 10 9 6 7 6
6 5 5 6 6 6 9 12 5 4 3 8 12 14 12 14 11 16 15 8 6 7 6 4 4 5 9 9 4 4 6 8 6 8 12 8 15 7 10 10 8 7 5 6 3
6 6 8 6 6 7 10 7 3 7 2 6 12 12 8 14 15 16 14 9 4 8 7 4 5 8 6 5 11 4 3 4 5 6 8 9 8 6 8 12 8 5 5 6 2
6 6 6 8 9 10 12 3 4 1 5 6 8 10 8 6 13 14 10 9 6 8 11 3 3 3 4 6 1 3 7 5 8 7 3 8 6 5 8 12 8 6 4 8 5
7 2 6 6 8 11 16 3 5 4 4 10 8 8 4 7 5 5 4 6 4 10 2 6 5 8 3 3 4 5 5 1 2 9 6 11 4 4 9 10 8 6 8 6 4
6 6 6 7 13 12 15 11 11 8 5 5 8 5 10 10 6 7 8 4 5 1 5 3 1 7 8 11 7 4 4 1 3 9 9 8 7 8 8 8 6 7 5 3 4
6 4 3 10 12 10 8 10 11 7 6 6 9 14 14 10 13 8 11 9 8 5 5 4 7 5 4 4 6 4 5 4 7 7 6 11 8 7 11 8 8 6 3 2 4
6 5 6 7 13 11 5 10 11 7 4 9 7 16 16 10 10 9 7 10 8 10 9 5 3 5 6 4 7 7 2 6 2 4 6 6 14 8 7 8 9 7 3 2 6
5 4 7 6 8 11 11 12 8 1 4 0 9 9 11 4 3 6 7 5 4 11 9 8 5 6 9 1 6 10 6 2 2 3 6 9 9 4 4 7 7 6 2 6 4
Wind_Direction
313 315 309 313 315 313 314 311 317 319 320 315 314 315 309 316 302 220 239 51 44 338 275 225 222 243 247 259 264 274 286 89 92 117 291 109 118 92 167 116 86 84 90 113 134
310 305 305 309 309 307 308 308 314 319 315 318 313 312 311 324 290 252 119 114 65 28 224 214 220 227 249 255 249 277 95 65 27 23 75 54 123 129 124 89 263 77 106 120 136
302 301 303 303 302 304 304 304 310 318 313 318 313 310 311 315 267 91 92 55 143 241 264 244 284 245 262 240 107 349 28 39 77 21 350 123 76 82 83 244 57 168 121 129 142
300 302 298 299 298 302 300 302 307 316 314 316 312 311 313 264 325 77 117 127 152 243 264 228 239 238 255 230 98 273 71 1 68 112 232 80 100 48 32 27 30 82 118 132 145
297 293 294 294 294 295 296 299 305 310 310 310 312 318 316 231 57 117 142 151 185 216 241 229 244 253 274 91 179 252 102 156 165 187 346 275 54 87 47 35 72 87 116 125 90
295 289 290 290 296 296 294 297 303 304 305 304 311 316 257 261 64 103 165 178 193 216 229 249 324 352 301 299 279 93 47 112 182 123 67 82 24 20 63 74 91 91 79 70 80
294 298 301 295 296 292 290 295 298 294 299 298 307 301 268 315 9 116 180 194 202 229 217 247 308 284 330 195 215 174 39 338 98 94 120 62 12 42 64 76 83 87 87 81 87
299 300 296 297 294 293 293 294 289 287 293 285 289 278 281 78 313 207 191 181 202 228 289 302 284 275 273 344 213 66 155 205 79 346 93 92 253 92 106 105 102 106 109 98 84
306 302 299 301 298 296 290 290 284 280 262 267 250 238 170 148 211 168 189 174 180 220 244 280 263 253 196 116 3 313 143 96 351 54 111 127 115 109 93 89 96 116 96 102 126
308 307 305 301 301 297 289 266 321 281 222 221 261 254 236 172 118 153 185 230 193 202 225 240 228 232 279 72 206 258 100 14 49 45 106 90 101 107 95 90 91 101 103 87 70
312 308 301 302 297 296 294 219 211 192 226 295 149 300 109 248 200 206 172 196 233 213 218 206 226 270 26 15 0 13 20 88 92 13 88 93 106 95 84 101 96 98 82 85 71
315 308 299 293 292 293 274 265 17 337 264 219 260 252 236 248 190 176 175 201 200 216 232 222 221 57 43 340 285 332 55 331 122 170 140 124 106 108 101 82 85 86 90 97 110
313 303 291 285 297 261 249 302 324 311 252 156 216 202 175 205 192 168 196 217 210 231 212 209 62 90 236 234 78 307 8 47 116 175 197 84 3 262 112 102 101 103 105 93 65
313 305 291 288 271 271 234 232 283 291 252 153 189 199 182 224 216 157 214 268 229 213 208 300 105 228 241 140 341 127 339 296 221 225 211 181 158 65 58 113 107 93 74 79 80
312 292 271 234 322 238 41 298 332 232 225 143 161 114 183 212 150 178 201 263 242 153 270 123 194 219 150 31 347 17 308 295 204 242 123 333 278 285 284 129 109 91 84 84 84
313 260 224 203 234 283 293 312 227 235 150 150 146 184 193 216 191 155 200 240 335 230 219 124 35 5 59 81 355 298 280 349 13 316 147 225 241 147 166 168 119 101 84 73 79
338 219 217 311 6 356 318 236 217 255 128 154 173 184 187 194 193 174 195 199 201 222 165 175 152 113 313 289 352 270 312 189 236 246 266 175 283 87 136 88 91 95 97 81 71
332 190 207 268 314 290 260 224 256 221 171 137 188 182 190 186 194 202 196 199 224 236 175 196 143 159 125 344 337 308 329 323 340 336 348 50 6 153 118 112 105 95 86 82 48
339 196 243 211 221 265 256 225 210 155 59 202 202 188 195 182 201 204 206 202 205 235 263 156 141 118 66 349 310 354 327 7 302 264 272 187 111 93 130 133 134 107 99 81 57
279 240 176 133 191 233 245 263 106 61 269 259 200 199 173 188 214 195 194 205 164 305 340 131 176 162 115 256 162 313 351 302 237 317 323 186 85 157 186 150 125 130 121 97 24
251 231 100 164 189 228 233 211 147 121 220 223 212 209 224 181 214 197 186 147 231 187 259 112 283 122 208 321 359 290 193 347 280 311 322 313 98 28 138 144 150 117 96 113 257
282 234 126 171 211 221 231 238 19 289 150 237 285 208 234 174 221 201 185 178 170 199 208 111 251 282 80 92 59 4 359 332 328 357 12 275 96 49 107 117 132 118 132 76 20
258 144 153 225 222 205 229 174 220 254 179 187 207 254 237 189 237 188 138 85 168 218 225 156 197 244 315 161 189 270 84 314 235 269 32 294 62 144 116 123 135 139 102 159 315
272 196 147 215 273 291 208 211 214 193 248 224 208 186 216 215 213 208 126 129 149 117 334 296 267 287 356 25 353 172 224 312 311 282 345 28 116 132 141 154 147 129 167 89 62
238 262 156 192 222 234 208 211 206 195 212 236 196 203 209 207 204 209 159 143 168 157 179 232 225 268 31 345 286 338 293 328 313 333 298 10 325 74 149 158 149 144 182 111 55
308 306 171 282 223 212 187 217 225 168 217 187 258 201 212 217 208 220 178 190 171 185 183 207 222 272 253 228 288 271 171 277 241 313 260 282 47 17 64 119 130 184 182 97 62
2 259 278 193 211 226 190 225 219 150 139 253 299 201 195 155 50 343 186 173 152 181 180 189 157 237 279 134 303 254 238 95 341 259 353 328 43 47 101 126 171 172 158 63 64